{"data":{"norad_id":61746,"epoch":"2026-05-25T04:00:21.360096Z","epoch_age_seconds":53860,"freshness":"FRESH","line1":"1 61746U 24199M   26145.16691389  .00021535  00000+0  43261-3 0  9994","line2":"2 61746  97.3033  18.8253 0008674  17.8414 342.3139 15.46633336133853","mean_motion":15.46633336,"eccentricity":0.0008674,"inclination_deg":97.3033,"raan_deg":18.8253,"arg_perigee_deg":17.8414,"mean_anomaly_deg":342.3139,"bstar":0.00043261,"rev_number":13385,"period_min":93.105454698411,"perigee_km":420.68064745183,"apogee_km":432.48547581475,"semimajor_km":6804.7200616333,"source":"CELESTRAK","updated_at":"2026-05-25T13:38:23.294106Z"}}